Regional Weather Roundup
Issued by NWS

Home | Current Version | Previous Version | Graphics & Text | Print | Product List | Glossary On
Versions: 1 2 3 4 5 6 7 8 9 10 11 12 13 14 15 16 17 18 19 20 21 22 23 24 25 26 27 28 29 30 31 32 33 34 35 36 37 38 39 40 41 42 43 44 45 46 47 48 49 50
118
ASUS45 KCYS 232310
RWRWY

WYOMING REGIONAL WEATHER ROUNDUP
NATIONAL WEATHER SERVICE CHEYENNE WY
500 PM MDT SAT JUL 23 2016

NOTE:  "FAIR" INDICATES FEW OR NO CLOUDS BELOW 12,000 FEET
WITH NO SIGNIFICANT WEATHER AND/OR OBSTRUCTIONS TO VISIBILITY.

WYZ001-240000-
YELLOWSTONE NATIONAL PARK

CITY           SKY/WX    TMP DP  RH WIND       PRES   REMARKS
LK YELLOWSTONE   N/A     69  26  20 W9        30.31S
W YELLOWSTONE  NOT AVBL

$$
WYZ002>013-054>058-071-098>099-240000-
NORTHERN WYOMING

CITY           SKY/WX    TMP DP  RH WIND       PRES   REMARKS
JACKSON        SUNNY     79  28  15 W10G17    30.20F
CODY           FAIR      81  39  22 N13G18    30.07S
GREYBULL       FAIR      90  31  12 VRB6      29.96F
WORLAND        FAIR      89  27  10 N6        29.97F
SHERIDAN       FAIR      87  32  14 N16       30.02F
BUFFALO        FAIR      82  39  21 N13       30.09F
GILLETTE       FAIR      85  39  19 N16       30.03F
HULETT         FAIR      84  37  18 MISG      30.04S
NEWCASTLE      FAIR      88  32  13 NW15G23   30.01F

$$
WYZ014>020-022>026-101>103-240000-
CENTRAL WYOMING

CITY           SKY/WX    TMP DP  RH WIND       PRES   REMARKS
BIG PINEY      FAIR      83  23  11 NW14      30.23S
PINEDALE       FAIR      79  21  11 NW15G24   30.24S
DUBOIS         FAIR      79  19  11 NW17G25   30.19F
LANDER         FAIR      91  21   8 SW12      30.03F
RIVERTON       FAIR      88  21   8 SE7       30.04F
CASPER         FAIR      94   8   4 W15G26    30.02F
DOUGLAS          N/A    N/A N/A N/A MISG      30.02S

$$
WYZ021-027>030-104>119-240000-
SOUTHERN WYOMING

CITY           SKY/WX    TMP DP  RH WIND       PRES   REMARKS
EVANSTON       FAIR      83  11   6 W22G29    30.25F
KEMMERER         N/A    N/A N/A N/A W17G31    30.26S
FORT BRIDGER   FAIR      86  15   7 W20G32    30.26F
ROCK SPRINGS   FAIR      87  14   6 W22G28    30.18F
DIXON          FAIR      83  37  19 NW9       30.20F
RAWLINS        FAIR      88  11   5 W25G37    30.18S
SARATOGA       FAIR      84  28  13 W12       30.22S
LARAMIE        FAIR      84  35  17 W16       30.21S
CHEYENNE       FAIR      92  36  14 NW13G25   30.11R
TORRINGTON     FAIR      94  39  14 N8        29.95R HX  90
PINE BLUFFS    LGT RAIN  73  55  53 SE7       30.08R

$$




USA.gov is the U.S. government's official web portal to all federal, state and local government web resources and services.